GLD1744 SBEK-PGFA

Flight info

Callsign GLD1744
Flight time N/A
Altitude 4500
Route DCT 0558S05832W
Aircraft C152/L-SDFGIRY/S

Departure

Time 2026-04-25 15:25
Airport Jacareacanga Airport (SBEK)

Arrival

Time N/A
Airport PGFA
Time Latitude Longitude Altitude Speed Heading
2026-04-25 15:13 -6.23457 -57.77565 309 ft 0 kts 359°
2026-04-25 15:20 -6.23449 -57.77559 314 ft 4 kts 110°
2026-04-25 15:20 -6.23478 -57.77597 306 ft 12 kts 260°
2026-04-25 15:20 -6.23413 -57.77656 306 ft 12 kts 333°
2026-04-25 15:21 -6.23401 -57.77663 305 ft 0 kts 329°
2026-04-25 15:23 -6.23377 -57.77677 305 ft 12 kts 334°
2026-04-25 15:23 -6.23265 -57.77580 303 ft 25 kts 64°
2026-04-25 15:24 -6.23178 -57.77403 304 ft 31 kts 64°
2026-04-25 15:24 -6.23118 -57.77285 304 ft 26 kts 62°
2026-04-25 15:24 -6.23020 -57.77072 308 ft 14 kts 56°
2026-04-25 15:24 -6.23009 -57.77068 308 ft 5 kts 310°
2026-04-25 15:25 -6.23168 -57.77380 303 ft 70 kts 244°
2026-04-25 15:25 -6.23404 -57.77858 463 ft 79 kts 241°
2026-04-25 15:25 -6.23643 -57.78375 700 ft 81 kts 244°
2026-04-25 15:25 -6.23787 -57.78909 953 ft 81 kts 265°
2026-04-25 15:26 -6.23796 -57.79465 1275 ft 80 kts 271°
2026-04-25 15:26 -6.23792 -57.80046 1542 ft 86 kts 272°
2026-04-25 15:26 -6.23832 -57.80627 1784 ft 85 kts 261°
2026-04-25 15:26 -6.23941 -57.81248 2187 ft 91 kts 259°
2026-04-25 15:27 -6.24015 -57.81883 2321 ft 91 kts 266°
2026-04-25 15:27 -6.24074 -57.82508 2486 ft 92 kts 269°
2026-04-25 15:27 -6.24165 -57.83893 2679 ft 102 kts 264°
2026-04-25 15:28 -6.24227 -57.84588 2837 ft 99 kts 268°
2026-04-25 15:28 -6.24305 -57.85263 2973 ft 95 kts 264°
2026-04-25 15:28 -6.24385 -57.85910 3162 ft 92 kts 261°
2026-04-25 15:28 -6.24459 -57.86576 3366 ft 100 kts 277°
2026-04-25 15:29 -6.24466 -57.87254 3689 ft 97 kts 260°
2026-04-25 15:29 -6.24586 -57.87917 3882 ft 95 kts 257°
2026-04-25 15:29 -6.24731 -57.88572 4030 ft 101 kts 268°
2026-04-25 15:29 -6.24816 -57.89277 4157 ft 101 kts 266°
2026-04-25 15:30 -6.24888 -57.89971 4320 ft 99 kts 267°
2026-04-25 15:30 -6.24975 -57.90671 4471 ft 101 kts 266°
2026-04-25 15:30 -6.25029 -57.91151 4506 ft 107 kts 265°
2026-04-25 15:30 -6.25136 -57.91884 4570 ft 106 kts 263°
2026-04-25 15:31 -6.25204 -57.92663 4498 ft 114 kts 271°
2026-04-25 15:31 -6.25256 -57.93447 4519 ft 111 kts 266°
2026-04-25 15:31 -6.25352 -57.94227 4510 ft 112 kts 263°
2026-04-25 15:31 -6.25472 -57.94990 4518 ft 111 kts 266°
2026-04-25 15:32 -6.25539 -57.95771 4503 ft 113 kts 268°
2026-04-25 15:32 -6.25606 -57.96562 4452 ft 114 kts 267°
2026-04-25 15:32 -6.25665 -57.97342 4484 ft 110 kts 266°
2026-04-25 15:33 -6.25660 -57.98887 4450 ft 112 kts 273°
2026-04-25 15:33 -6.25655 -57.99679 4417 ft 112 kts 277°
2026-04-25 15:33 -6.25594 -58.00457 4434 ft 110 kts 279°
2026-04-25 15:33 -6.25551 -58.01221 4425 ft 112 kts 275°
2026-04-25 15:34 -6.25511 -58.02002 4432 ft 110 kts 276°
2026-04-25 15:34 -6.25484 -58.02781 4419 ft 110 kts 276°
2026-04-25 15:34 -6.25420 -58.03536 4428 ft 110 kts 281°
2026-04-25 15:34 -6.25355 -58.04044 4428 ft 109 kts 282°
2026-04-25 15:35 -6.25053 -58.05771 4435 ft 107 kts 295°
2026-04-25 15:35 -6.24797 -58.06469 4443 ft 107 kts 293°
2026-04-25 15:35 -6.24546 -58.07176 4424 ft 109 kts 299°
2026-04-25 15:36 -6.24014 -58.08595 4442 ft 109 kts 291°
2026-04-25 15:36 -6.23777 -58.09310 4465 ft 107 kts 294°
2026-04-25 15:36 -6.23534 -58.10021 4445 ft 107 kts 290°
2026-04-25 15:37 -6.23393 -58.10753 4422 ft 109 kts 288°
2026-04-25 15:37 -6.23170 -58.11470 4433 ft 106 kts 295°
2026-04-25 15:37 -6.22888 -58.12159 4428 ft 107 kts 299°
2026-04-25 15:37 -6.22574 -58.12837 4425 ft 108 kts 299°
2026-04-25 15:38 -6.22295 -58.13523 4456 ft 104 kts 296°
2026-04-25 15:38 -6.22015 -58.14193 4442 ft 107 kts 300°
2026-04-25 15:38 -6.21725 -58.14882 4452 ft 107 kts 292°
2026-04-25 15:38 -6.21656 -58.15643 4420 ft 113 kts 265°
2026-04-25 15:39 -6.21841 -58.16407 4437 ft 111 kts 255°
2026-04-25 15:39 -6.22136 -58.17128 4435 ft 111 kts 247°
2026-04-25 15:39 -6.22448 -58.17818 4439 ft 110 kts 243°
2026-04-25 15:39 -6.22720 -58.18550 4405 ft 111 kts 258°
2026-04-25 15:40 -6.22824 -58.19319 4403 ft 112 kts 271°
2026-04-25 15:40 -6.22796 -58.19834 4437 ft 107 kts 282°
2026-04-25 15:40 -6.22515 -58.20799 4410 ft 109 kts 292°
2026-04-25 15:40 -6.22371 -58.21543 4395 ft 110 kts 279°
2026-04-25 15:41 -6.22325 -58.22314 4385 ft 109 kts 277°
2026-04-25 15:41 -6.22273 -58.23072 4385 ft 111 kts 278°
2026-04-25 15:41 -6.22204 -58.23838 4392 ft 109 kts 278°
2026-04-25 15:41 -6.22161 -58.24610 4377 ft 111 kts 276°
2026-04-25 15:42 -6.22098 -58.25378 4260 ft 115 kts 286°
2026-04-25 15:42 -6.21946 -58.26130 4146 ft 110 kts 284°
2026-04-25 15:42 -6.21831 -58.26876 3989 ft 108 kts 279°
2026-04-25 15:42 -6.21759 -58.27642 3803 ft 106 kts 279°
2026-04-25 15:43 -6.21693 -58.28389 3516 ft 111 kts 279°
2026-04-25 15:43 -6.21598 -58.29134 3345 ft 103 kts 282°
2026-04-25 15:43 -6.21482 -58.29834 3208 ft 102 kts 284°
2026-04-25 15:43 -6.21370 -58.30523 3088 ft 101 kts 283°
2026-04-25 15:44 -6.21295 -58.31222 2925 ft 100 kts 276°
2026-04-25 15:44 -6.21254 -58.31928 2768 ft 100 kts 274°
2026-04-25 15:44 -6.21212 -58.32622 2599 ft 100 kts 278°
2026-04-25 15:44 -6.21120 -58.33311 2472 ft 97 kts 283°
2026-04-25 15:45 -6.20999 -58.34013 2451 ft 104 kts 285°
2026-04-25 15:45 -6.20844 -58.34730 2530 ft 106 kts 288°
2026-04-25 15:45 -6.20675 -58.35457 2548 ft 105 kts 286°
2026-04-25 15:45 -6.20560 -58.35931 2527 ft 107 kts 287°
2026-04-25 15:46 -6.20319 -58.36916 2545 ft 110 kts 288°
2026-04-25 15:46 -6.20139 -58.37655 2614 ft 110 kts 287°
2026-04-25 15:46 -6.19948 -58.38413 2574 ft 111 kts 287°
2026-04-25 15:46 -6.19792 -58.39143 2601 ft 105 kts 282°
2026-04-25 15:47 -6.19683 -58.39873 2546 ft 107 kts 280°
2026-04-25 15:47 -6.19657 -58.40622 2439 ft 107 kts 272°
2026-04-25 15:47 -6.19693 -58.41340 2290 ft 101 kts 269°
2026-04-25 15:47 -6.19700 -58.42031 2103 ft 97 kts 272°
2026-04-25 15:48 -6.19672 -58.42704 1950 ft 98 kts 277°
2026-04-25 15:48 -6.19609 -58.43382 1784 ft 93 kts 280°
2026-04-25 15:48 -6.19496 -58.44014 1583 ft 96 kts 282°
2026-04-25 15:48 -6.19369 -58.44682 1355 ft 98 kts 283°
2026-04-25 15:49 -6.19188 -58.45315 1208 ft 92 kts 290°
2026-04-25 15:49 -6.18980 -58.45888 1109 ft 83 kts 293°
2026-04-25 15:49 -6.18793 -58.46387 1053 ft 74 kts 293°
2026-04-25 15:49 -6.18613 -58.46867 1021 ft 70 kts 293°
2026-04-25 15:50 -6.18529 -58.47353 950 ft 73 kts 255°
2026-04-25 15:50 -6.18779 -58.47743 990 ft 60 kts 207°
2026-04-25 15:50 -6.19184 -58.47691 1027 ft 61 kts 144°
2026-04-25 15:50 -6.19516 -58.47389 1098 ft 60 kts 116°
2026-04-25 15:51 -6.19672 -58.46980 1145 ft 65 kts 115°
2026-04-25 15:51 -6.19818 -58.46723 1220 ft 64 kts 116°
2026-04-25 15:51 -6.20102 -58.46165 1320 ft 64 kts 111°
2026-04-25 15:51 -6.20302 -58.45775 1345 ft 57 kts 134°
2026-04-25 15:52 -6.20597 -58.45488 1293 ft 59 kts 125°
2026-04-25 15:52 -6.20649 -58.45110 1201 ft 61 kts 58°
2026-04-25 15:52 -6.20229 -58.45055 1070 ft 73 kts 327°
2026-04-25 15:52 -6.20042 -58.45516 966 ft 70 kts 285°
2026-04-25 15:53 -6.19701 -58.45851 778 ft 74 kts 327°
2026-04-25 15:53 -6.19314 -58.46156 591 ft 66 kts 313°
2026-04-25 15:53 -6.19183 -58.46414 482 ft 0 kts 293°